TimeCST,TemperatureF,Dew PointF,Humidity,Sea Level PressureIn,VisibilityMPH,Wind Direction,Wind SpeedMPH,Gust SpeedMPH,PrecipitationIn,Events,Conditions,WindDirDegrees,DateUTC
12:55 AM,54.9,50.7,86,30.07,10.0,Calm,Calm,-,N/A,,Partly Cloudy,0,2012-12-06 06:55:00
1:55 AM,53.1,49.6,88,30.06,10.0,ENE,3.5,-,N/A,,Clear,60,2012-12-06 07:55:00
2:55 AM,53.4,50.0,88,30.05,10.0,ENE,6.9,-,N/A,,Clear,60,2012-12-06 08:55:00
3:55 AM,52.2,49.5,91,30.04,10.0,NE,8.1,-,N/A,,Clear,50,2012-12-06 09:55:00
4:55 AM,51.6,48.7,90,30.05,10.0,NE,5.8,-,N/A,,Clear,50,2012-12-06 10:55:00
5:55 AM,50.5,48.2,92,30.07,10.0,Calm,Calm,-,N/A,,Clear,0,2012-12-06 11:55:00
6:55 AM,51.8,49.3,91,30.09,10.0,NE,5.8,-,N/A,,Partly Cloudy,40,2012-12-06 12:55:00
7:55 AM,54.9,51.4,88,30.09,10.0,NE,9.2,-,N/A,,Mostly Cloudy,50,2012-12-06 13:55:00
8:55 AM,59.7,53.2,79,30.09,10.0,ENE,5.8,-,N/A,,Clear,60,2012-12-06 14:55:00
9:55 AM,67.5,55.4,65,30.09,10.0,East,8.1,-,N/A,,Clear,90,2012-12-06 15:55:00
10:55 AM,70.9,54.3,56,30.06,10.0,East,9.2,-,N/A,,Clear,90,2012-12-06 16:55:00
11:55 AM,73.0,53.8,51,30.04,10.0,ESE,8.1,-,N/A,,Clear,110,2012-12-06 17:55:00
12:55 PM,73.6,54.9,52,30.01,10.0,East,9.2,-,N/A,,Clear,80,2012-12-06 18:55:00
1:55 PM,73.4,54.9,52,30.00,10.0,ESE,6.9,-,N/A,,Mostly Cloudy,120,2012-12-06 19:55:00
2:55 PM,72.7,54.9,53,30.00,10.0,East,5.8,-,N/A,,Mostly Cloudy,90,2012-12-06 20:55:00
3:55 PM,71.6,55.4,57,30.00,10.0,NE,6.9,-,N/A,,Mostly Cloudy,50,2012-12-06 21:55:00
4:55 PM,66.9,56.3,69,30.01,10.0,NE,5.8,-,N/A,,Partly Cloudy,40,2012-12-06 22:55:00
5:55 PM,63.5,56.3,77,30.01,10.0,NE,6.9,-,N/A,,Clear,50,2012-12-06 23:55:00
6:55 PM,62.4,56.8,82,30.02,10.0,NE,6.9,-,N/A,,Mostly Cloudy,40,2012-12-07 00:55:00
7:55 PM,61.5,56.3,83,30.03,10.0,ENE,9.2,-,N/A,,Scattered Clouds,60,2012-12-07 01:55:00
8:55 PM,60.1,55.6,85,30.03,10.0,NE,8.1,-,N/A,,Clear,50,2012-12-07 02:55:00
9:55 PM,58.6,54.9,87,30.04,10.0,ENE,6.9,-,N/A,,Clear,60,2012-12-07 03:55:00
10:55 PM,57.4,54.9,91,30.04,10.0,NE,8.1,-,N/A,,Clear,50,2012-12-07 04:55:00
11:55 PM,58.1,55.8,92,30.02,10.0,East,8.1,-,N/A,,Scattered Clouds,80,2012-12-07 05:55:00